Weather History for KIND - June, 2013

Change the Weather History Date:

Monday, June 3, 2013

  Actual Average Record
Temperature  
Mean Temperature 58 °F 68 °F  
Max Temperature 68 °F 78 °F 100 °F (1895)
Min Temperature 48 °F 59 °F 40 °F (1929)
Degree Days  
Heating Degree Days 7 1  
Month to date heating degree days 8 5  
Since 1 June heating degree days 8 5  
Since 1 July heating degree days 5404 5367  
Cooling Degree Days 0 5  
Month to date cooling degree days 4 15  
Year to date cooling degree days 133 99  
Since 1 June cooling degree days 4 15  
Growing Degree Days 8 (Base 50)    
Moisture  
Dew Point 45 °F    
Average Humidity 63    
Maximum Humidity 83    
Minimum Humidity 42    
Precipitation  
Precipitation 0.00 in 0.14 in 2.89 in (1950)
Month to date precipitation 0.76 0.43  
Year to date precipitation 22.59 17.83  
Snow  
Snow 0.00 in 0.00 in 0.00 in ()
Month to date snowfall 0.0 0.0  
Since 1 June snowfall 0.0 0.0  
Since 1 July snowfall 34.5 25.9  
Snow Depth 0.00 in    
Sea Level Pressure  
Sea Level Pressure 30.03 in    
Wind  
Wind Speed 6 mph (NNE)    
Max Wind Speed 12 mph    
Max Gust Speed 14 mph    
Visibility 10 miles    
Events      
T = Trace of Precipitation, MM = Missing Value Source: NWS Daily Summary

Daily Weather History Graph

Daily Weather History Graph

Search for Another Location

Airport or City:

Trip Planner

Search our weather history database for the weather conditions in past years. The results will help you decide how hot, cold, wet, or windy it might be!

Date:

Astronomy

Jun. 03, 2013 Rise Set
Actual Time 6:18 AM EDT 9:08 PM EDT
Civil Twilight 5:46 AM EDT 9:40 PM EDT
Nautical Twilight 5:06 AM EDT 10:21 PM EDT
Astronomical Twilight 4:19 AM EDT 11:07 PM EDT
Moon 3:15 AM EDT (6/3) 4:39 PM EDT (6/3)
Length of Visible Light 15h 54m
Length of Day
14h 50m
Waning Crescent, 22% of the Moon is Illuminated
Jun 3
Waning Crescent
Jun 8
New
Jun 16
First Quarter
Jun 23
Full
Jun 30
Last Quarter

Hourly Weather History & Observations

Time (EDT) Temp. Dew Point Humidity Pressure Visibility Wind Dir Wind Speed Gust Speed Precip Events Conditions
12:38 AM 55.4 °F 50.0 °F 82% 29.99 in 10.0 mi North 8.1 mph - N/A   Mostly Cloudy
12:54 AM 55.9 °F 50.0 °F 80% 29.99 in 10.0 mi North 6.9 mph - N/A   Mostly Cloudy
1:54 AM 55.0 °F 48.9 °F 80% 30.00 in 10.0 mi NNW 5.8 mph - N/A   Mostly Cloudy
2:54 AM 52.0 °F 46.9 °F 83% 29.99 in 10.0 mi NNW 8.1 mph - N/A   Partly Cloudy
3:54 AM 51.1 °F 44.1 °F 77% 29.99 in 10.0 mi NNW 6.9 mph - N/A   Clear
4:54 AM 48.9 °F 43.0 °F 80% 30.00 in 10.0 mi North 3.5 mph - N/A   Clear
5:54 AM 48.0 °F 42.1 °F 80% 30.02 in 10.0 mi NNE 5.8 mph - N/A   Clear
6:54 AM 48.0 °F 42.1 °F 80% 30.03 in 10.0 mi North 4.6 mph - N/A   Partly Cloudy
7:54 AM 50.0 °F 42.1 °F 74% 30.05 in 10.0 mi North 5.8 mph - N/A   Scattered Clouds
8:54 AM 52.0 °F 43.0 °F 71% 30.05 in 10.0 mi NE 5.8 mph - N/A   Partly Cloudy
9:54 AM 55.0 °F 45.0 °F 69% 30.07 in 10.0 mi Variable 3.5 mph - N/A   Scattered Clouds
10:52 AM 57.2 °F 46.4 °F 67% 30.08 in 10.0 mi North 9.2 mph - N/A   Mostly Cloudy
10:54 AM 57.9 °F 46.9 °F 67% 30.08 in 10.0 mi North 8.1 mph - N/A   Mostly Cloudy
11:54 AM 59.0 °F 46.0 °F 62% 30.09 in 10.0 mi North 6.9 mph - N/A   Mostly Cloudy
12:49 PM 60.8 °F 46.4 °F 59% 30.07 in 10.0 mi North 9.2 mph - N/A   Mostly Cloudy
12:54 PM 60.1 °F 46.0 °F 60% 30.07 in 10.0 mi NNE 8.1 mph - N/A   Mostly Cloudy
1:54 PM 62.1 °F 46.9 °F 58% 30.05 in 10.0 mi NE 5.8 mph - N/A   Mostly Cloudy
2:54 PM 63.0 °F 46.9 °F 56% 30.04 in 10.0 mi ENE 5.8 mph - N/A   Mostly Cloudy
3:54 PM 66.0 °F 48.0 °F 52% 30.02 in 10.0 mi North 3.5 mph - N/A   Scattered Clouds
4:54 PM 66.9 °F 48.0 °F 51% 30.01 in 10.0 mi Calm Calm - N/A   Scattered Clouds
5:54 PM 66.9 °F 46.0 °F 47% 30.01 in 10.0 mi ENE 3.5 mph - N/A   Scattered Clouds
6:54 PM 68.0 °F 45.0 °F 43% 30.01 in 10.0 mi NE 5.8 mph - N/A   Scattered Clouds
7:54 PM 66.0 °F 44.1 °F 45% 30.02 in 10.0 mi NNE 9.2 mph - N/A   Partly Cloudy
8:54 PM 63.0 °F 44.1 °F 50% 30.03 in 10.0 mi NNE 8.1 mph - N/A   Partly Cloudy
9:54 PM 60.1 °F 41.0 °F 49% 30.05 in 10.0 mi NE 6.9 mph - N/A   Clear
10:54 PM 59.0 °F 42.1 °F 53% 30.06 in 10.0 mi NNE 5.8 mph - N/A   Clear
11:54 PM 57.0 °F 43.0 °F 59% 30.07 in 10.0 mi NNE 5.8 mph - N/A   Clear